Theta_e
298 297 296 294 292 292 292 293 296 299 302 303 303 305 311 315 315 314 315 317 316 319 321 319 316 315 314 313 312 313 312 312 311 311 312 312 312 311 311 310 310 311 311 312 313 314 315 315 314 315 315 313 313 312 312 312 311 314 317 319 320 321 319 317 318 317 316 314 312 311 311 309 311 315 315 313 314 316 315 317 321 322 319 320 323 321 327
298 297 296 294 292 292 292 293 296 300 301 301 302 307 311 312 313 313 314 315 316 319 320 319 318 316 314 312 312 312 311 311 311 311 311 312 312 312 312 310 311 312 312 311 312 315 316 314 314 317 314 311 313 312 311 314 314 315 319 322 321 320 320 318 317 317 320 319 316 317 316 313 312 315 316 314 314 318 321 320 323 324 319 319 322 320 323
298 297 297 295 293 292 292 294 296 300 303 303 303 307 311 312 315 316 314 315 318 320 319 317 318 317 315 315 315 313 312 312 311 311 311 311 312 312 312 311 312 312 312 314 312 312 315 314 314 316 313 311 313 311 311 314 315 318 321 321 320 320 320 320 318 318 321 322 319 317 315 313 314 315 314 315 315 317 323 324 320 320 320 319 321 323 323
298 297 297 295 293 292 292 294 297 300 304 304 304 307 312 314 317 317 315 316 317 318 317 314 315 315 314 315 316 313 312 313 311 312 312 311 311 311 311 311 312 312 314 315 314 312 312 313 313 313 312 311 311 312 313 314 314 317 319 319 320 319 318 319 318 318 320 319 314 312 311 311 313 313 313 314 317 317 319 321 319 318 322 323 323 327 327
298 297 296 295 293 293 293 295 298 301 304 304 305 310 313 314 315 314 312 315 317 317 315 312 313 314 313 314 315 313 313 312 312 312 312 311 311 310 310 310 311 313 314 316 316 314 312 313 315 314 313 311 310 311 313 314 316 316 314 316 318 316 317 318 316 314 314 311 309 309 309 310 310 311 314 315 318 318 314 316 319 318 319 323 324 325 323
297 297 297 296 294 293 294 297 299 302 303 303 304 309 310 311 313 311 310 313 316 316 313 311 311 312 313 314 314 314 314 314 314 313 312 311 312 312 313 312 310 311 312 314 316 316 316 318 318 318 316 315 313 313 311 312 316 315 311 315 317 314 316 317 312 311 311 309 310 310 309 310 310 312 315 315 317 318 314 315 319 316 315 320 321 319 317
297 297 297 295 294 293 295 297 299 302 303 303 302 303 305 307 310 310 309 311 314 314 312 311 312 313 314 315 314 313 315 315 313 312 313 314 312 312 314 312 310 311 312 313 316 319 321 321 319 317 318 318 318 316 314 312 312 313 311 314 318 318 317 315 312 312 312 310 311 311 309 311 311 311 313 312 313 316 315 316 317 315 317 320 321 319 317
297 297 296 294 293 294 295 297 299 301 303 304 302 301 301 303 306 308 309 310 312 313 311 311 312 313 314 315 313 311 312 314 312 310 312 315 313 311 311 310 309 310 310 311 313 314 317 319 317 314 316 319 318 316 316 314 312 312 312 315 318 318 316 314 314 316 315 311 311 311 310 310 310 311 314 315 315 317 318 318 317 315 316 318 320 320 317
297 297 296 294 294 294 294 296 299 301 302 304 304 301 299 300 303 305 308 310 312 312 311 310 312 313 313 313 312 310 310 311 311 309 309 311 311 309 309 310 310 309 309 309 309 309 312 314 313 311 312 313 313 312 313 312 312 312 313 316 317 316 315 315 314 316 317 312 309 311 311 310 311 314 316 317 316 316 317 317 317 315 314 317 320 318 314
297 297 297 295 294 293 294 295 298 300 301 302 303 302 299 299 301 303 307 311 313 311 309 308 311 313 311 310 309 309 308 307 309 311 310 308 308 307 308 309 310 308 307 308 307 306 307 309 309 309 309 308 308 309 309 308 310 311 312 316 317 314 315 317 314 315 316 312 311 313 312 312 316 317 315 314 315 316 317 316 316 315 314 316 317 314 312
297 297 297 296 294 293 294 295 297 298 299 300 302 302 299 299 302 304 308 312 312 309 307 307 308 309 308 306 306 307 307 306 307 310 310 307 307 307 306 308 310 309 306 305 305 305 305 307 308 308 308 307 307 307 307 307 308 308 309 313 315 312 313 315 314 313 313 313 315 315 313 314 318 316 313 314 315 317 318 315 313 314 314 314 313 312 311
297 297 297 297 295 294 293 294 297 298 299 300 302 303 300 300 302 305 308 311 310 306 306 306 305 306 306 305 305 306 306 307 307 308 309 308 308 307 306 307 308 307 304 304 304 304 304 306 307 307 307 307 307 306 306 306 307 307 307 310 313 313 313 313 312 312 314 315 315 313 312 314 315 312 312 314 315 316 318 315 310 311 312 311 310 310 309
297 297 297 297 295 294 293 294 296 298 299 300 303 304 301 300 302 304 307 309 308 304 304 304 303 304 305 305 305 306 306 307 307 308 309 308 307 307 306 305 305 304 303 304 303 303 306 308 307 308 307 306 306 307 306 306 306 306 306 308 312 315 315 313 311 312 314 313 313 313 311 311 314 313 311 313 314 315 319 316 310 308 309 310 309 308 308
297 296 297 297 296 294 293 294 295 298 299 300 302 304 302 300 302 304 305 308 308 304 303 303 303 304 306 306 305 305 306 306 307 309 309 307 307 307 305 303 303 303 303 304 304 305 307 308 308 309 308 306 307 309 308 306 306 307 306 306 308 312 314 315 313 314 316 313 313 314 311 309 314 314 311 311 312 313 316 315 309 306 307 307 307 307 307
297 297 297 297 296 294 293 294 295 296 298 299 302 304 302 300 301 302 304 307 309 306 303 303 304 305 306 305 304 305 307 307 306 306 306 306 306 305 303 302 302 303 303 304 305 306 308 308 308 309 309 308 308 310 308 306 306 307 307 307 307 308 311 314 312 314 316 314 312 312 310 310 313 312 309 310 310 311 312 312 309 306 306 306 306 306 306
296 297 297 297 297 295 293 294 294 294 296 298 301 303 302 299 300 302 303 306 308 306 302 302 304 304 304 303 303 304 305 306 306 306 306 306 304 303 303 302 303 303 304 304 305 306 307 308 307 308 309 308 306 308 308 306 307 308 306 307 308 308 311 314 314 313 314 313 311 310 309 310 311 310 307 308 310 311 312 310 308 306 305 305 305 305 306
296 296 296 297 297 295 293 293 294 294 295 296 299 302 302 299 300 302 304 306 307 304 300 300 302 303 303 304 305 304 304 304 305 306 307 305 302 301 302 302 303 304 304 304 305 306 307 308 307 307 308 306 304 307 308 307 309 310 308 308 311 312 314 315 314 311 311 313 311 310 310 310 310 308 307 306 308 312 313 310 307 305 304 304 304 304 305
296 296 296 297 297 295 293 293 294 294 295 296 298 301 302 299 300 302 303 306 306 303 299 299 301 302 302 303 303 304 304 304 305 306 306 304 301 301 302 301 302 304 303 303 305 306 307 307 306 306 307 306 305 308 308 308 309 308 307 308 311 313 314 313 311 309 310 311 310 308 309 309 308 307 307 305 307 310 309 307 305 304 304 304 303 303 305
296 296 296 297 297 296 294 293 293 294 296 297 298 301 301 299 299 301 302 304 305 302 299 299 300 300 301 301 301 301 302 303 304 305 306 305 302 301 303 303 303 303 303 303 304 305 306 307 306 305 307 308 308 308 306 306 307 305 305 308 310 310 312 312 311 310 310 309 309 309 308 308 308 307 306 305 308 308 306 304 304 304 304 303 302 303 304
296 296 296 296 297 296 294 292 293 295 297 297 298 301 301 299 298 299 300 302 304 302 299 299 299 299 299 300 300 301 302 303 303 303 304 304 303 302 306 306 303 302 303 304 304 305 305 307 306 304 306 308 309 308 306 306 306 304 304 306 306 308 311 311 309 309 309 309 308 308 307 307 308 307 304 304 307 307 305 303 303 303 302 301 301 302 302
296 296 296 296 297 297 295 292 293 295 297 297 298 300 302 300 299 298 298 300 302 302 300 300 299 298 299 299 299 299 301 301 302 301 302 303 303 303 304 304 301 300 301 302 303 304 303 303 304 303 303 305 306 305 305 306 306 304 304 305 304 304 307 307 305 306 308 307 307 309 309 308 306 304 303 302 303 303 301 301 301 300 300 300 300 300 300
296 296 296 296 296 296 294 292 293 295 296 297 298 299 300 300 299 298 299 300 301 302 300 299 299 298 298 298 298 299 299 299 300 300 301 303 303 302 301 301 300 300 300 301 303 303 302 302 302 302 302 303 304 303 303 304 305 304 303 305 304 302 303 304 304 304 303 303 304 307 308 305 303 302 302 301 300 300 299 300 300 300 300 300 300 300 300
296 296 296 296 296 295 293 291 293 294 295 297 298 298 300 300 298 298 299 300 301 302 300 299 300 300 298 298 298 298 298 298 299 299 300 302 303 303 301 301 300 300 301 302 301 301 301 301 301 301 302 302 303 303 304 304 304 302 302 303 302 300 301 302 303 303 303 302 301 301 300 300 300 300 300 299 299 299 299 300 300 300 301 300 300 300 300
296 296 296 296 295 294 292 292 294 294 295 297 298 298 300 300 298 298 299 300 302 303 302 299 300 300 298 297 298 298 297 298 299 299 299 300 302 303 302 301 300 300 302 302 301 301 301 301 301 301 300 301 302 303 304 304 302 301 303 304 301 299 300 301 302 303 305 304 300 298 299 299 299 299 298 299 299 299 300 300 300 300 301 301 300 300 301
295 296 295 295 294 293 292 292 294 294 295 297 298 299 300 300 298 297 299 300 301 303 303 301 300 299 297 297 298 298 297 298 298 299 298 298 300 301 301 300 300 300 300 301 303 303 302 301 302 301 300 301 302 303 303 303 302 301 303 304 301 300 300 300 300 301 302 301 298 298 299 299 298 298 299 299 299 299 299 300 300 300 300 300 299 300 301
295 295 295 294 294 293 292 293 294 295 295 296 297 299 300 300 299 297 298 299 300 302 302 301 299 298 298 298 297 297 297 298 298 298 298 298 299 299 299 300 301 300 300 302 303 303 302 301 301 301 301 301 301 301 301 301 301 301 302 301 301 300 299 299 299 301 301 300 299 299 300 300 299 299 299 299 299 299 299 300 300 300 300 300 299 299 299
294 294 294 294 293 293 292 293 295 296 297 297 298 299 300 300 299 297 297 299 301 302 302 302 300 299 299 298 297 297 298 297 297 297 298 298 299 299 298 299 301 302 302 302 302 301 301 301 301 301 301 301 300 301 301 300 300 301 301 300 300 301 299 299 302 304 302 300 299 299 300 300 300 299 300 300 299 299 299 299 300 299 299 299 299 298 298
294 294 294 294 294 293 293 293 295 296 297 298 298 299 300 300 299 297 295 298 300 301 301 301 301 299 300 299 298 297 297 297 297 297 297 297 298 298 298 299 301 302 302 302 302 301 301 301 301 301 301 300 301 302 302 299 299 300 300 299 299 300 300 301 303 303 302 300 300 300 300 300 300 300 300 300 300 299 299 299 298 299 298 298 298 298 298
294 294 294 294 294 293 293 293 294 295 297 298 299 300 301 300 299 296 294 297 300 300 301 301 302 300 300 300 298 297 297 297 297 297 297 297 297 297 297 298 300 301 301 301 301 300 301 301 301 301 301 300 300 300 299 299 299 299 299 299 300 300 301 302 302 302 301 300 300 300 299 299 300 300 300 300 299 299 299 299 298 298 297 296 297 298 298
294 294 294 294 294 293 293 293 294 295 297 298 300 301 301 300 298 295 293 295 299 300 301 301 301 301 300 299 298 297 296 297 297 298 297 297 297 297 297 298 299 299 300 300 299 299 300 300 299 300 301 300 299 298 298 298 298 298 298 299 300 300 301 302 302 300 300 299 299 299 299 299 299 299 299 298 298 298 298 298 298 297 296 296 296 297 297
294 294 294 294 294 293 293 293 294 294 296 297 299 300 300 299 298 295 293 294 297 300 301 301 301 300 299 299 298 297 296 296 297 298 297 297 298 297 296 297 298 299 300 300 298 298 299 299 298 299 300 300 299 298 297 297 297 297 298 299 300 300 300 301 300 300 300 299 299 299 299 299 299 298 298 298 298 297 297 296 296 296 296 296 295 295 294
293 294 294 294 294 294 293 294 294 294 295 296 297 298 298 298 296 294 293 293 296 299 301 301 300 299 298 299 299 297 297 297 298 298 298 299 298 297 296 297 298 299 299 298 297 297 298 298 298 298 299 299 299 298 297 297 298 298 298 299 300 300 300 300 300 300 300 299 299 299 299 299 298 298 298 298 296 295 295 295 295 295 295 295 294 293 293
293 294 294 294 295 294 294 295 294 294 296 297 297 298 299 298 296 293 292 294 298 301 301 300 298 298 298 299 299 299 298 299 299 299 299 298 297 297 298 299 299 299 297 297 297 298 298 298 298 298 298 299 298 297 297 298 298 298 298 299 300 300 300 300 300 300 299 299 299 298 298 298 297 297 297 296 295 295 295 295 294 294 294 293 292 292 292
293 294 294 295 295 295 295 296 296 296 297 298 299 300 299 297 294 293 293 296 300 301 300 298 298 298 298 299 300 299 298 299 300 299 299 298 297 297 298 298 299 299 297 297 298 298 298 298 298 298 299 299 298 297 297 297 298 298 299 300 300 300 300 300 300 299 299 299 299 298 297 297 296 296 295 294 294 294 294 294 293 293 292 292 291 291 291
293 294 295 295 296 296 296 297 297 297 298 300 301 300 297 294 293 292 294 298 301 302 300 299 298 299 300 300 300 300 298 298 299 299 299 299 298 298 298 297 299 299 297 297 298 298 297 298 299 299 299 299 298 297 297 297 298 298 299 299 300 300 299 299 298 299 299 299 299 298 297 296 296 295 295 294 294 294 294 293 293 292 292 291 291 292 291
294 295 296 296 297 297 298 299 299 299 300 300 299 296 294 293 294 293 294 298 301 301 300 299 299 300 300 300 299 298 298 299 299 299 299 299 298 298 297 297 298 298 297 298 299 298 298 298 299 298 298 298 297 298 298 298 298 298 299 299 299 299 298 298 298 298 299 299 298 298 297 296 296 295 294 293 293 293 293 293 293 293 292 292 292 292 291
296 297 297 297 298 300 301 301 300 300 299 297 295 295 295 295 296 297 298 299 300 300 299 299 300 300 299 299 299 298 298 299 299 298 299 299 298 297 297 297 297 297 297 297 299 298 298 298 298 298 298 299 299 299 299 299 299 299 299 299 299 298 298 299 299 298 298 298 298 297 296 296 295 295 294 293 293 293 293 293 293 293 293 292 292 292 291
298 299 299 300 301 301 301 301 300 298 297 295 295 297 299 298 299 300 301 300 300 300 300 299 300 301 299 299 300 298 298 299 300 299 299 298 297 297 298 297 296 297 297 297 298 297 297 298 297 297 298 299 299 299 299 299 300 300 299 298 298 298 298 299 299 298 297 297 297 296 295 295 295 295 294 294 293 293 293 293 293 293 293 293 292 292 292
299 299 300 301 301 300 299 300 299 298 297 298 298 299 300 299 298 299 300 299 299 299 299 300 300 300 299 299 300 299 298 299 300 299 299 298 298 298 297 296 296 296 296 296 297 297 297 297 297 296 297 298 298 298 299 299 300 300 299 298 298 298 298 298 298 297 297 297 296 295 295 295 295 295 294 294 294 294 293 293 293 293 293 293 293 292 292
298 298 298 299 299 298 297 298 299 298 298 299 299 298 298 298 298 298 299 298 298 299 299 300 300 299 299 299 300 299 298 299 299 299 298 298 298 298 296 296 296 296 295 295 296 296 296 296 296 295 297 298 298 298 298 299 299 299 298 297 297 297 298 297 297 297 296 296 296 295 295 295 295 295 295 295 295 295 294 293 293 293 293 293 293 292 291
297 296 296 296 296 296 297 298 298 298 298 298 298 298 298 298 298 298 298 298 298 298 299 299 299 299 299 299 299 299 299 299 299 299 297 297 298 297 296 296 296 295 294 295 296 296 296 296 295 295 296 298 298 298 298 299 299 298 297 297 297 297 297 297 297 297 296 296 295 295 295 295 295 295 295 295 295 295 294 293 293 293 293 293 292 291 291
295 295 295 295 296 297 298 298 298 299 298 298 297 297 297 297 298 298 298 298 298 299 298 298 298 299 299 299 298 299 298 298 298 297 297 297 298 297 296 296 295 294 294 295 296 295 295 295 294 295 297 298 298 298 298 299 299 298 297 296 297 297 297 297 297 296 296 296 295 295 295 295 295 295 295 295 295 295 294 294 294 293 293 293 291 290 290
296 296 297 297 298 298 298 298 299 298 298 297 296 297 297 297 297 298 298 298 298 298 298 299 299 298 298 298 299 299 298 297 297 297 297 297 296 296 295 295 295 295 295 296 295 295 295 295 295 296 298 298 297 298 298 298 298 297 296 296 297 297 297 296 296 296 296 296 295 295 295 295 295 295 294 294 294 294 293 293 293 292 292 292 291 290 290
297 298 297 298 299 298 297 298 299 299 298 296 296 297 297 298 299 299 299 299 299 299 299 300 300 299 298 298 299 299 298 297 297 297 297 297 296 295 295 295 296 296 295 295 295 295 296 296 296 297 297 297 296 297 298 298 299 298 297 297 297 296 296 296 296 295 295 295 295 295 295 295 295 295 294 294 293 293 292 292 292 291 291 291 291 290 290
297 298 297 298 298 298 297 297 298 298 298 297 298 298 299 300 301 301 300 300 300 300 300 300 300 299 299 298 298 298 297 297 297 297 297 296 295 295 295 296 296 296 295 295 295 295 296 297 298 297 296 296 296 296 297 298 299 298 298 298 297 296 296 296 296 295 295 295 295 295 294 295 295 294 294 293 293 292 292 292 292 291 291 291 291 291 290
297 297 296 296 298 298 296 296 297 298 298 299 299 299 299 299 300 300 300 300 299 299 300 300 300 299 299 299 298 298 298 297 297 297 296 296 296 296 296 296 296 295 294 295 295 295 296 298 299 297 296 296 296 295 296 298 298 298 298 299 298 297 296 296 296 296 295 295 295 294 294 294 295 294 294 293 293 292 292 291 291 291 291 290 290 290 290
296 296 296 296 297 297 297 297 298 298 298 298 298 298 299 300 300 299 300 300 299 299 300 300 299 299 299 298 298 298 298 297 297 297 297 296 295 296 295 295 295 294 294 294 295 295 296 299 299 297 297 297 296 296 296 298 298 298 298 298 298 297 296 295 296 296 295 295 295 295 294 294 295 294 294 293 292 292 292 292 291 291 291 290 290 290 290
295 295 295 296 297 297 298 298 298 297 297 298 298 298 299 300 300 300 301 300 300 300 300 299 299 298 298 299 298 298 297 297 297 297 297 296 296 295 295 295 295 295 294 295 296 297 297 298 299 298 297 296 296 296 296 297 298 298 298 299 298 297 296 295 296 297 296 295 295 295 295 295 295 294 294 293 292 292 292 292 291 291 291 291 290 290 290
295 295 295 295 296 297 298 298 297 297 298 298 298 299 300 300 299 299 300 301 301 300 300 299 298 298 298 297 297 297 297 297 297 296 296 296 296 295 295 295 295 295 295 296 298 299 298 298 298 297 297 296 296 296 296 296 297 298 297 297 297 297 296 296 296 297 297 296 296 296 296 296 295 295 294 293 292 292 292 292 292 291 291 291 290 290 289
295 295 295 295 296 297 297 297 297 297 298 298 298 299 300 299 298 298 300 300 300 300 299 298 298 297 296 296 295 296 296 297 296 296 296 296 296 295 296 295 295 295 296 298 299 299 298 297 297 297 297 296 297 297 297 297 297 296 295 295 296 296 296 296 296 297 297 297 296 296 296 296 295 295 294 293 292 292 291 291 291 292 291 291 291 290 289
295 294 295 296 296 296 297 297 297 297 297 297 297 298 299 299 298 298 298 299 299 299 298 297 297 297 296 296 296 296 296 296 296 296 296 296 295 296 296 296 296 297 299 300 301 300 298 297 298 298 298 297 297 297 296 296 295 295 295 295 295 295 296 297 297 297 297 297 297 296 296 296 296 296 294 292 292 292 291 290 291 292 291 291 290 290 289
294 295 296 296 296 296 296 296 297 297 297 297 297 298 298 299 299 298 298 298 299 298 298 297 297 297 297 297 296 296 296 296 296 296 296 295 295 296 297 298 299 299 300 300 300 300 300 299 299 299 299 298 297 296 295 294 294 294 294 294 295 296 296 296 297 297 297 297 296 297 297 296 296 296 295 293 292 292 291 291 291 292 292 291 290 290 289
Wind_Speed
31 33 36 40 42 42 43 43 42 44 41 34 26 15 4 1 4 14 5 15 16 5 1 3 2 3 5 7 10 10 8 9 10 8 5 4 5 2 2 4 5 4 3 1 2 2 1 3 2 1 3 5 5 7 9 9 8 5 3 2 2 2 3 2 2 4 5 8 10 9 9 7 3 1 3 4 2 3 4 3 3 2 1 1 3 0 3
31 32 37 41 42 42 43 43 41 40 39 33 20 7 3 3 4 10 8 7 7 4 3 4 4 4 6 8 10 10 9 9 9 7 4 3 4 4 4 4 3 2 3 3 2 1 1 1 1 1 2 3 3 2 5 8 7 3 2 1 1 1 1 2 1 3 5 6 7 7 7 6 3 3 4 4 3 5 4 2 3 2 1 3 4 1 3
31 31 35 40 43 43 43 43 41 35 35 34 17 2 2 4 3 4 6 7 5 3 3 4 4 5 6 7 7 6 7 7 8 7 5 4 4 4 5 5 4 3 4 6 6 1 3 1 2 3 4 5 6 5 6 9 6 2 4 5 3 1 1 3 4 2 1 1 0 2 5 5 3 4 6 4 4 6 4 2 4 2 3 2 4 3 4
31 31 36 41 42 43 43 44 42 33 30 33 17 4 2 3 2 3 4 2 1 2 3 2 4 5 5 4 4 4 4 6 8 7 4 3 5 5 6 6 5 5 5 5 7 5 0 1 2 2 1 3 6 7 9 9 7 5 7 8 4 2 1 2 3 5 4 3 3 2 4 4 4 6 7 6 5 6 5 3 2 2 1 3 1 5 3
31 31 35 41 42 43 42 43 43 34 27 28 16 3 1 3 1 4 4 4 4 3 3 3 3 5 4 2 3 4 4 5 5 3 2 4 8 7 7 6 4 4 4 2 3 6 5 5 7 7 6 3 4 9 11 8 7 6 6 5 4 3 2 1 1 2 3 5 7 8 7 6 5 6 7 6 6 6 4 0 4 4 2 4 2 5 4
32 31 33 38 41 42 42 42 43 35 26 26 17 2 2 4 1 3 4 3 4 4 5 5 5 7 4 1 4 5 5 5 3 2 2 4 7 6 6 8 8 8 7 3 2 4 5 6 7 7 7 5 3 6 7 6 6 5 3 3 4 4 1 3 2 3 5 5 7 8 7 6 6 5 5 6 6 6 4 4 5 2 1 5 4 3 1
32 31 33 37 39 40 40 41 43 37 26 25 20 7 3 4 2 4 5 4 4 6 7 6 5 7 6 3 4 5 5 6 6 3 2 3 7 7 6 9 12 13 13 8 5 4 4 3 4 4 5 5 3 4 4 3 4 4 2 2 3 4 2 2 1 2 4 5 7 8 7 7 7 6 6 6 6 5 4 4 4 2 2 6 4 4 2
31 31 34 38 39 39 39 39 41 39 30 25 19 10 6 4 2 4 5 5 5 6 7 7 3 5 7 5 6 6 5 5 6 4 3 1 3 5 7 11 12 13 15 12 8 8 6 4 4 5 5 5 3 3 2 1 2 3 1 1 3 3 1 1 2 3 4 5 6 8 7 7 7 7 7 6 6 7 5 3 5 4 2 2 6 8 5
31 31 34 38 38 37 38 37 39 39 34 23 11 9 12 9 7 6 4 4 6 5 6 5 2 4 6 5 5 7 9 9 6 6 8 8 7 6 7 10 9 10 14 12 9 10 9 6 6 6 4 3 4 3 2 3 4 3 1 2 3 2 0 1 4 3 3 4 4 6 6 8 8 7 6 5 5 4 3 2 3 3 4 7 9 8 4
30 31 33 36 37 36 36 36 36 37 36 23 8 9 18 15 11 10 4 3 5 5 4 6 5 3 5 6 6 7 11 14 10 5 8 14 14 10 10 11 7 7 11 10 9 11 11 8 7 6 4 5 5 4 5 5 3 2 2 2 2 3 2 1 2 2 3 3 3 6 7 7 6 4 5 5 3 3 5 4 5 6 6 5 4 2 3
30 30 32 34 35 36 34 33 34 35 36 28 10 8 18 16 9 7 4 2 5 5 5 8 6 5 8 11 11 9 11 12 10 5 5 10 12 10 10 10 6 5 6 7 8 10 11 10 8 5 4 6 6 5 6 7 4 3 1 1 0 1 2 2 2 2 2 1 5 7 5 2 4 2 7 7 3 5 6 4 7 8 6 4 4 3 5
30 30 31 32 33 34 33 32 32 32 34 30 16 10 20 20 9 5 3 3 6 7 6 7 9 10 12 12 10 9 9 8 7 7 5 6 9 9 7 8 5 3 5 7 8 10 10 9 7 5 5 6 7 6 7 7 6 5 3 2 3 3 3 1 2 3 1 2 7 5 3 4 2 5 9 8 6 6 7 7 10 10 8 8 8 8 8
30 30 30 31 31 31 31 30 30 29 30 30 21 14 21 24 11 3 3 3 4 7 6 7 11 13 14 13 9 9 10 9 7 6 5 5 7 7 4 6 5 3 5 7 9 9 7 5 5 5 5 5 5 7 8 8 8 8 6 4 4 5 4 2 2 3 2 2 3 2 4 3 4 8 8 7 7 7 5 7 10 11 8 8 8 7 7
29 31 31 30 30 30 29 28 29 28 27 28 24 17 20 24 13 3 3 3 3 6 5 6 10 12 12 12 11 8 9 10 8 5 4 3 4 6 4 6 5 4 4 5 6 5 3 3 3 4 4 3 3 4 6 7 8 10 10 8 6 5 4 3 2 1 3 4 3 2 2 5 6 5 5 5 5 4 2 4 6 9 9 7 6 7 8
29 31 30 30 30 29 27 25 27 28 28 27 23 17 19 25 17 6 3 2 1 4 5 5 7 9 9 10 11 8 6 7 7 6 4 2 2 5 5 6 5 4 3 2 2 2 1 1 1 2 1 1 1 2 3 3 4 4 5 7 8 6 5 5 3 2 3 4 1 1 1 2 2 1 4 5 4 4 3 3 4 7 9 8 7 7 8
28 29 30 30 30 29 26 23 24 27 28 27 24 18 19 25 23 13 6 2 0 2 5 6 7 7 6 7 9 8 5 4 6 5 5 5 6 6 6 3 3 3 2 2 2 1 1 1 0 1 1 2 2 2 2 2 1 3 5 2 4 4 2 4 4 2 3 4 2 1 2 2 2 4 6 7 6 6 5 3 3 6 8 8 8 7 7
27 28 30 29 29 29 26 21 21 25 27 28 26 19 17 23 26 19 8 2 2 3 4 8 7 5 4 5 6 6 4 4 5 3 3 5 7 8 7 5 4 3 3 3 2 1 0 1 1 1 2 3 3 1 2 3 2 4 7 5 6 7 5 4 4 2 2 3 3 1 1 1 3 6 7 8 7 6 6 2 1 6 7 6 7 7 6
27 28 29 29 28 29 26 20 19 22 24 27 25 17 14 20 26 21 10 3 3 4 5 11 9 4 5 6 5 4 3 4 4 3 3 3 5 8 9 6 4 5 6 4 2 1 1 1 1 0 2 3 3 2 2 3 3 4 6 4 4 4 3 3 4 3 1 2 2 1 1 1 4 7 7 8 7 6 5 1 2 4 6 6 7 7 6
27 27 28 28 27 28 25 19 18 20 22 25 24 16 13 19 24 22 13 4 2 4 6 10 10 6 7 8 5 4 5 6 5 4 3 3 5 9 8 4 4 5 5 5 4 3 3 2 2 2 2 3 3 1 1 2 1 2 3 4 3 3 2 2 3 2 2 2 2 2 1 1 4 6 6 6 4 2 1 2 3 4 5 6 6 6 6
27 26 27 28 27 27 25 18 16 18 20 24 24 18 14 18 21 21 15 6 2 3 5 8 10 9 8 8 6 5 6 5 4 4 3 3 6 8 6 4 5 5 5 5 4 3 2 3 3 2 2 3 1 1 1 2 2 3 3 3 3 2 1 2 3 2 2 2 3 3 2 3 4 3 5 5 2 2 3 2 3 3 5 7 6 5 5
26 26 26 27 26 27 25 17 14 16 18 21 23 17 15 18 21 23 20 11 3 1 3 4 7 10 8 7 7 7 8 6 5 5 3 4 6 4 3 4 5 4 3 4 3 2 3 3 3 2 2 2 1 1 2 2 3 4 3 3 4 5 2 1 1 1 2 3 2 1 2 3 2 2 0 1 1 1 2 3 3 4 6 6 5 5 6
26 26 26 27 25 26 25 17 12 14 16 18 20 17 16 20 23 25 22 12 3 2 4 4 4 9 7 6 6 9 9 8 7 6 4 3 4 3 4 5 6 3 2 2 2 2 3 3 3 3 3 3 2 3 4 3 2 3 3 3 3 2 1 1 1 1 2 2 2 3 3 2 1 3 2 2 6 7 6 5 4 4 4 4 4 6 7
25 25 26 26 25 26 24 16 11 12 13 15 18 18 17 18 22 26 23 11 3 3 4 4 6 6 6 9 8 8 8 7 7 6 5 3 3 4 4 4 4 3 2 3 2 1 3 3 2 2 2 3 4 4 4 3 2 3 4 4 3 2 3 3 1 2 2 1 1 5 5 4 5 5 5 8 9 7 6 6 5 4 4 4 4 5 6
24 25 25 25 24 25 22 15 11 10 11 12 16 18 16 13 18 25 21 10 4 4 4 6 6 3 3 7 9 9 8 6 7 7 6 4 3 3 3 3 3 2 3 4 3 2 2 3 2 1 2 3 3 3 3 3 3 3 4 3 2 3 5 4 2 2 2 1 5 9 8 6 7 8 8 9 8 6 6 5 4 4 5 5 5 5 5
22 24 24 23 23 22 19 15 12 10 10 11 13 16 16 13 16 20 15 6 2 3 2 2 2 1 3 5 7 8 8 6 7 7 7 6 7 5 0 3 1 1 2 4 4 4 2 3 2 2 3 3 3 3 2 2 2 3 3 2 1 2 3 3 3 3 1 1 7 9 6 5 8 8 7 7 8 7 6 5 4 5 5 5 5 5 5
21 22 23 22 21 19 16 14 13 11 10 10 12 15 16 14 15 17 15 8 4 1 1 1 1 5 7 7 6 7 6 6 6 7 8 7 9 8 2 2 2 0 2 3 3 3 1 2 2 2 2 2 2 2 1 1 2 2 2 3 3 3 3 2 4 4 2 3 8 10 7 6 8 9 7 7 7 7 7 7 6 6 6 6 7 7 6
20 20 22 21 19 16 14 12 12 12 11 11 10 11 12 12 14 16 15 10 4 1 2 3 2 6 9 7 6 9 6 7 6 8 9 7 3 5 4 1 2 1 1 3 3 1 1 2 1 0 0 0 1 1 1 2 2 1 2 4 4 4 3 3 4 4 3 3 5 5 4 3 5 7 8 8 8 7 8 8 8 8 8 7 8 9 10
20 19 20 21 19 15 12 10 10 11 12 13 10 8 6 7 12 14 13 10 5 1 2 3 3 4 6 6 7 7 4 3 2 5 6 8 8 2 1 3 3 1 2 2 1 1 1 2 2 1 1 1 1 2 2 3 2 2 1 3 3 3 2 2 3 2 2 3 3 4 2 2 4 6 7 7 6 7 8 8 8 8 8 8 8 8 9
20 19 19 19 19 15 10 9 10 10 13 16 13 9 4 2 8 15 15 10 7 4 2 3 4 2 2 3 8 8 6 3 3 7 5 5 7 6 5 6 4 2 2 2 1 1 2 3 1 1 1 2 1 1 3 2 1 1 2 3 4 4 3 5 5 4 2 3 4 4 3 3 4 5 6 6 7 7 6 7 7 7 9 10 9 7 7
19 19 18 17 18 15 11 10 10 10 13 16 13 7 1 2 6 16 17 10 8 7 3 1 2 2 2 3 4 6 7 7 7 7 5 3 5 6 7 4 0 2 2 1 1 1 2 2 1 1 2 2 3 1 1 1 1 0 2 4 4 4 3 4 4 2 2 3 4 4 4 5 5 4 5 7 9 8 5 6 7 8 11 12 10 7 9
18 18 17 17 17 15 12 10 10 9 12 14 9 3 1 0 7 15 16 11 8 5 1 2 2 2 2 1 2 3 4 6 6 3 0 3 7 6 4 5 3 1 2 1 0 1 1 2 1 1 1 2 3 1 1 2 1 0 0 1 2 3 3 3 3 4 4 4 5 5 4 4 5 5 5 6 9 10 7 7 10 11 11 12 11 11 14
16 16 16 16 17 15 11 9 10 9 9 10 7 2 2 4 10 15 14 11 8 3 1 2 2 2 1 1 4 4 1 3 5 4 3 4 4 2 4 2 2 1 2 2 0 1 1 1 1 1 1 2 2 2 0 2 1 2 2 2 3 4 4 3 4 4 5 5 5 4 4 5 5 5 5 5 9 11 9 8 11 12 11 11 13 15 15
15 15 16 16 15 13 10 8 8 8 9 9 7 5 4 6 11 12 10 8 6 4 2 1 2 2 1 0 2 0 3 3 4 2 1 2 2 1 1 2 2 1 2 2 1 1 1 1 1 1 1 2 2 2 1 2 1 2 4 4 4 4 4 4 4 5 5 5 4 3 3 4 4 5 7 9 11 11 10 9 10 11 11 11 11 11 13
15 15 15 15 14 12 10 8 8 9 9 8 5 4 5 8 10 9 7 6 4 4 3 1 1 2 2 1 1 2 4 3 1 1 1 3 4 2 1 2 1 1 0 1 1 1 2 2 2 2 1 1 1 1 1 0 3 5 5 5 5 4 4 4 4 5 4 4 3 4 4 5 5 6 7 8 8 9 9 10 10 9 8 8 8 8 9
15 15 14 15 15 14 12 11 10 9 8 5 4 4 8 11 10 7 5 2 1 1 2 1 1 2 2 1 1 2 3 3 1 1 1 4 4 3 2 1 1 0 1 1 1 1 2 1 1 1 1 1 2 2 1 2 5 6 5 5 5 5 4 3 3 4 4 4 2 4 5 5 5 5 5 6 7 7 7 8 8 7 6 5 6 6 7
14 14 14 15 15 14 11 9 7 5 4 5 7 11 13 11 8 6 4 2 2 2 1 1 2 2 2 2 1 2 3 3 2 2 1 1 1 0 1 0 1 1 1 1 0 2 3 2 2 0 1 1 1 2 3 4 5 5 5 5 4 3 2 2 3 3 4 4 4 6 5 4 5 5 4 4 4 5 5 5 5 5 4 4 4 5 6
13 14 16 16 13 8 5 4 2 2 7 10 11 11 10 7 5 5 4 3 5 5 2 1 2 2 1 2 2 1 3 2 2 2 2 1 1 1 0 1 1 1 0 0 2 3 2 2 2 1 2 2 3 4 5 6 5 4 5 3 2 1 1 3 5 3 4 4 5 5 4 4 4 4 3 3 3 4 4 4 4 4 4 4 4 5 6
14 14 14 11 5 1 1 1 3 8 11 10 7 5 4 2 1 2 3 3 3 5 3 1 3 3 1 2 2 1 1 2 3 2 1 1 1 2 0 1 0 0 0 2 3 0 1 1 2 2 3 3 5 5 5 6 6 5 5 4 2 2 2 3 5 3 2 2 4 4 3 3 3 3 3 3 1 2 3 4 4 4 5 5 5 5 7
14 13 10 5 1 1 3 5 8 12 11 6 3 2 1 2 1 1 2 2 2 2 2 2 3 3 2 1 1 1 2 1 2 3 2 0 0 0 1 1 0 1 0 2 2 2 1 1 2 2 2 3 5 5 4 6 6 5 4 6 5 3 2 3 4 3 2 4 4 2 2 1 1 2 3 2 2 2 3 5 6 6 8 9 7 4 5
14 12 8 3 3 6 10 11 11 10 7 3 2 1 1 1 1 1 1 1 1 1 2 2 3 2 2 2 1 1 1 0 1 1 2 1 0 1 1 1 0 1 0 2 1 1 1 1 1 1 2 3 5 4 4 6 6 4 4 6 6 4 3 3 3 2 4 6 6 5 4 4 4 3 2 1 2 3 4 6 7 7 9 10 5 2 4
12 10 7 6 10 16 17 14 10 6 3 1 1 1 0 1 2 1 1 1 2 1 1 1 1 0 2 2 1 1 1 1 1 0 1 1 1 1 0 1 1 0 1 2 1 1 0 1 1 2 2 3 5 4 4 6 5 4 5 7 7 5 3 1 3 5 6 6 5 5 5 6 6 3 1 3 5 5 5 7 9 11 12 9 2 4 6
10 9 11 14 18 18 13 8 4 3 1 1 1 1 1 2 2 1 1 2 2 1 0 1 1 2 2 1 1 1 1 1 1 1 1 1 0 1 1 1 0 0 2 2 1 0 1 1 2 3 3 4 5 5 5 6 5 4 4 7 8 6 3 1 2 5 7 6 6 6 5 5 4 4 2 5 9 9 9 10 11 11 10 4 3 6 7
11 9 11 12 10 7 4 3 2 2 0 1 0 1 2 2 1 2 2 1 1 1 1 1 1 2 3 1 1 1 2 1 1 1 0 1 1 0 1 1 0 1 2 1 1 1 2 2 3 4 4 5 5 4 5 6 5 4 4 7 10 8 5 3 3 4 6 6 6 5 4 2 3 3 4 8 10 9 7 4 4 7 9 5 7 8 8
12 7 5 4 3 2 2 1 0 1 1 1 1 1 2 2 2 2 2 1 0 1 2 2 2 2 2 1 0 0 1 2 1 1 1 1 1 1 1 2 1 1 1 1 1 2 3 3 3 4 5 4 4 4 5 6 6 4 5 7 11 10 8 5 4 5 6 7 6 4 3 2 3 4 6 8 6 4 7 7 6 7 9 8 7 7 8
8 4 2 1 1 1 0 1 1 0 1 2 2 2 3 4 3 2 2 2 1 1 1 2 3 2 1 1 1 1 0 1 1 0 0 1 1 1 1 2 2 1 1 2 2 2 3 4 2 3 6 5 5 4 5 5 5 5 5 7 9 9 9 7 6 6 7 8 8 6 5 5 8 8 8 7 3 1 3 5 6 6 8 9 9 7 7
3 2 1 2 3 1 0 1 2 1 1 2 3 3 4 4 3 1 1 2 2 3 4 4 5 4 2 1 0 0 1 1 1 1 0 1 1 1 1 1 1 1 1 2 2 3 4 5 3 4 6 5 5 4 5 5 5 5 6 6 7 8 10 10 8 8 8 10 10 9 9 10 12 11 8 5 2 2 2 2 5 6 6 8 9 9 7
3 2 2 2 2 1 1 2 2 2 2 4 4 4 4 3 2 1 1 2 4 4 4 4 4 3 1 1 0 1 1 1 1 1 0 0 1 2 1 1 1 1 1 2 3 3 4 4 3 5 6 5 5 5 6 5 5 5 5 5 5 7 10 11 9 9 9 11 11 11 12 13 12 11 7 6 5 4 3 3 3 5 5 6 7 8 8
2 2 1 1 1 2 2 2 3 4 5 5 5 5 4 3 3 3 2 3 4 4 3 3 3 2 1 0 0 1 1 0 1 1 1 0 1 1 1 1 2 2 1 2 4 5 4 3 5 6 6 6 6 5 5 4 5 6 5 5 5 6 8 10 9 9 10 12 12 12 11 10 10 10 7 7 8 6 4 3 2 2 3 4 5 6 8
2 2 2 1 2 2 3 3 5 6 5 4 4 5 4 4 4 4 3 3 4 4 4 4 3 1 1 1 1 2 1 1 1 1 1 1 1 1 1 2 3 2 2 3 4 4 3 4 6 6 6 6 6 5 4 3 3 5 5 4 4 7 10 11 11 11 11 11 11 11 10 9 10 10 8 8 10 9 5 3 2 3 3 3 4 5 6
3 2 2 2 2 3 3 4 4 5 5 4 4 4 3 3 4 4 3 2 3 4 3 3 2 1 0 1 1 2 2 2 1 2 2 2 2 2 2 3 3 3 4 5 4 2 2 4 5 5 5 6 6 5 5 5 4 6 6 5 6 6 9 12 14 13 11 11 11 10 10 11 12 12 8 8 11 9 7 5 3 4 4 3 3 5 6
3 2 2 3 4 4 3 3 4 5 5 5 5 4 3 2 1 2 2 3 3 3 2 1 1 1 1 1 2 2 1 1 1 2 3 3 2 2 3 4 4 4 4 5 5 3 2 4 5 5 5 6 5 5 5 5 6 6 8 9 8 7 6 9 13 15 14 13 12 12 13 14 14 13 7 8 11 10 10 9 6 5 6 6 4 4 5
3 2 3 3 4 4 4 4 5 5 5 5 5 4 3 2 2 2 1 3 2 2 1 1 1 1 1 2 2 2 1 0 1 3 3 2 2 3 4 4 4 4 4 5 4 4 4 3 4 6 6 6 5 3 2 2 3 3 6 8 10 10 8 8 11 14 14 14 13 14 15 15 14 13 8 8 10 8 9 11 9 7 7 8 6 5 6
Wind_Direction
360 359 2 4 4 4 3 3 4 3 2 358 355 350 312 221 292 301 303 140 139 108 148 234 244 223 235 243 249 256 257 261 262 256 271 302 300 294 238 256 272 261 253 270 283 300 215 222 245 44 78 80 60 17 6 26 49 55 70 60 348 4 80 76 305 295 310 315 315 317 321 330 339 10 70 74 90 110 129 190 215 214 278 74 97 44 281
-0 -0 3 5 6 5 3 4 3 3 4 359 350 338 307 284 272 298 287 192 159 115 177 238 264 241 241 245 249 258 263 266 269 271 280 301 302 306 287 268 270 322 343 332 311 116 120 253 215 140 101 102 97 49 38 51 52 37 26 65 246 299 72 100 37 342 338 332 332 333 340 3 3 332 22 50 41 56 64 33 38 33 318 106 111 180 262
-0 359 1 4 6 6 5 4 3 2 3 -0 351 264 276 308 249 274 264 219 191 164 188 217 237 261 268 257 259 274 280 285 293 295 289 287 309 324 322 330 348 1 5 346 332 0 141 182 219 188 171 157 163 159 111 86 83 71 38 51 95 144 116 111 122 160 245 271 280 352 341 352 355 334 346 1 19 43 62 66 58 11 307 47 104 172 250
0 0 2 5 7 7 6 5 4 2 3 2 352 251 250 321 292 326 316 279 323 270 266 267 250 267 276 274 290 292 293 308 308 302 291 311 345 331 311 330 352 359 17 8 334 330 339 18 351 353 61 148 157 132 104 93 97 91 58 55 69 78 58 90 131 175 199 235 264 331 346 334 328 326 328 334 2 29 53 72 101 165 353 350 180 158 175
1 0 3 7 9 8 8 7 6 5 8 8 359 274 298 340 338 15 349 317 339 335 325 340 307 284 267 262 311 294 279 288 295 321 5 5 5 347 320 338 1 351 -0 11 327 329 338 7 16 13 12 25 102 102 100 95 90 86 81 91 97 68 15 327 294 257 266 285 301 319 323 307 301 304 310 323 342 1 24 58 211 168 68 315 242 116 110
1 0 2 5 9 11 10 9 9 10 17 22 22 24 3 359 340 18 4 320 329 335 336 343 330 320 315 8 1 340 335 333 327 2 346 347 14 11 339 353 359 346 346 344 314 326 339 10 20 17 17 8 26 76 90 98 100 88 72 102 114 105 180 262 287 293 293 297 304 309 303 297 301 300 307 322 333 344 339 276 248 172 172 238 209 97 25
2 1 3 6 10 12 12 12 12 13 24 37 40 41 2 1 334 343 359 346 305 302 317 319 317 332 344 8 354 345 6 355 333 337 336 346 21 25 1 359 4 12 23 34 29 7 7 24 17 12 15 358 352 43 62 93 112 96 51 21 78 97 180 247 329 327 324 336 329 320 314 308 306 307 316 322 327 344 344 306 316 20 214 219 170 92 33
3 3 6 9 11 13 14 14 13 15 26 38 43 45 19 354 322 333 340 332 312 308 321 315 306 359 8 12 356 351 8 350 325 352 25 10 25 38 25 6 6 28 43 47 37 18 14 26 21 14 15 6 5 38 45 25 44 57 64 12 35 62 199 207 76 31 347 334 316 311 316 321 319 317 329 348 358 2 10 10 10 20 341 343 58 68 38
4 3 6 10 13 13 14 16 14 16 24 28 27 28 13 344 323 333 315 306 323 318 324 336 28 36 9 353 353 359 6 3 2 23 30 29 31 48 49 21 11 38 44 35 17 359 352 354 353 356 6 353 337 339 349 13 20 9 16 43 51 84 207 23 70 57 311 291 307 323 343 359 350 336 350 17 30 26 32 42 46 68 53 27 40 52 6
5 4 4 8 12 13 14 16 15 16 22 22 5 8 9 354 337 343 325 275 310 315 354 25 41 33 354 347 357 18 23 22 30 35 22 25 24 30 47 38 28 48 37 13 349 340 333 324 319 325 338 326 317 321 327 339 359 343 0 51 96 121 106 66 99 117 256 271 355 -0 12 15 342 327 3 359 354 68 65 32 30 63 75 60 65 74 329
5 4 3 5 10 13 13 16 16 16 19 17 1 356 10 1 329 330 350 325 332 353 31 32 25 11 9 7 7 19 30 32 38 32 13 20 13 13 44 51 51 60 27 342 330 329 316 300 292 284 286 297 297 306 312 313 309 288 293 79 239 126 114 149 143 132 249 303 37 24 11 337 267 316 16 360 359 88 94 64 37 46 58 75 98 68 13
5 4 3 3 8 12 13 15 16 17 17 15 7 2 10 5 336 311 5 3 356 15 33 29 19 7 4 5 5 9 15 25 44 42 33 24 3 355 30 57 56 39 354 332 332 328 313 302 296 285 270 266 267 269 270 273 279 275 249 183 191 170 141 175 161 140 191 35 49 36 282 237 190 42 22 7 22 70 98 83 50 42 48 55 56 43 32
5 4 3 2 6 10 13 14 15 16 16 16 14 7 8 10 5 329 357 9 13 19 21 18 15 6 356 354 356 6 10 12 30 42 45 42 8 345 12 63 54 359 344 345 336 327 324 323 325 320 305 288 278 265 248 242 248 249 242 224 180 156 153 191 190 153 143 88 94 162 242 281 40 42 20 10 22 28 51 60 37 27 40 56 59 50 41
4 4 3 2 4 9 12 13 14 14 14 16 16 11 9 14 17 348 341 9 15 10 19 21 7 356 351 352 356 10 16 9 3 8 32 52 359 331 2 71 60 356 347 353 331 322 334 338 338 335 317 311 307 277 253 244 236 227 226 224 201 179 176 171 173 168 136 142 176 206 310 339 3 23 9 11 25 11 34 85 43 14 15 27 44 47 39
4 3 3 1 3 8 12 13 13 12 12 15 18 17 14 14 12 355 335 349 335 354 22 31 355 342 349 358 3 11 14 5 354 344 1 44 348 347 26 72 68 18 347 338 313 311 343 0 354 330 293 302 302 264 261 259 239 225 225 215 199 194 191 161 156 186 131 126 152 302 338 302 292 347 358 3 11 355 5 94 66 2 355 7 28 38 34
4 3 3 1 1 5 11 13 12 10 9 12 16 17 15 13 11 359 326 278 105 18 14 12 355 351 1 1 1 6 5 6 3 346 354 10 357 -0 23 49 64 54 358 313 287 299 16 89 25 303 258 266 284 276 305 310 293 359 353 16 88 75 87 128 133 144 115 115 134 201 195 216 281 338 353 346 337 349 14 71 53 342 336 0 23 27 28
4 4 3 1 1 3 8 12 12 9 6 7 11 11 9 11 11 4 337 300 58 51 11 7 4 3 14 2 356 3 358 -0 14 356 337 3 1 355 355 351 359 19 2 338 307 295 39 167 221 282 267 285 313 351 353 348 358 354 348 8 47 42 29 52 72 81 124 144 159 197 152 96 348 340 341 329 328 13 51 81 337 327 322 349 17 12 14
3 4 2 0 0 1 5 11 12 8 5 5 7 9 9 11 13 11 1 340 35 49 17 14 18 18 17 14 358 355 1 8 16 349 312 356 15 353 340 342 1 1 352 347 332 324 347 288 259 334 289 314 9 50 4 6 22 349 345 10 31 20 22 51 56 50 58 148 144 112 104 34 333 321 323 325 338 32 68 180 254 298 310 344 12 356 349
1 2 1 0 359 359 4 11 11 9 8 7 7 9 16 17 15 15 16 4 24 37 12 15 28 29 22 22 4 353 19 28 19 3 350 359 351 334 331 352 17 1 356 3 357 356 13 0 357 22 349 348 25 56 329 357 0 327 356 33 30 7 8 19 30 42 42 70 101 71 29 259 266 289 324 355 12 43 155 220 237 265 301 339 348 330 334
359 360 360 -0 358 358 3 10 12 11 10 10 10 7 10 16 12 11 12 1 332 16 7 18 37 37 27 29 17 1 21 32 18 14 13 336 323 331 349 13 5 356 11 17 -0 356 25 8 352 16 6 339 328 199 318 326 323 359 43 65 38 26 29 0 1 22 49 59 71 56 0 245 229 273 345 20 70 204 234 252 270 308 349 352 338 334 359
358 358 359 359 357 357 1 8 16 13 9 12 14 9 4 9 5 359 358 347 309 29 345 357 48 64 56 41 37 36 36 34 27 24 7 316 320 350 36 24 4 8 16 4 349 348 3 354 346 357 355 332 320 356 358 341 348 17 54 84 40 19 20 52 21 17 43 43 52 101 227 236 187 112 14 312 11 13 14 15 6 13 17 7 354 354 2
357 357 358 358 357 356 0 9 18 13 8 10 12 7 360 -0 358 355 354 346 286 223 273 299 55 80 67 33 52 81 76 61 50 45 33 334 327 5 53 34 13 12 17 17 20 356 341 342 346 349 343 338 347 354 354 8 28 2 13 80 68 356 323 108 81 61 91 128 187 186 195 218 89 109 139 54 34 31 34 39 35 21 10 4 1 350 345
355 356 356 357 356 357 3 13 18 12 7 6 5 1 354 352 354 356 358 355 323 292 304 355 37 51 29 14 35 78 83 80 85 68 42 12 346 10 47 43 3 337 10 42 46 335 312 313 322 343 349 348 359 1 351 6 37 354 1 67 95 0 12 47 49 29 54 116 86 47 34 11 18 42 56 52 44 31 24 26 21 7 355 348 344 338 339
353 354 355 356 358 -0 6 14 16 9 3 2 4 2 358 360 3 1 360 5 17 355 357 25 30 20 341 2 25 43 36 48 91 78 27 8 38 36 20 16 13 3 350 350 351 339 313 298 300 349 20 8 15 20 2 9 22 2 6 52 74 18 27 48 64 46 37 25 35 31 11 354 19 34 35 34 31 21 17 15 356 342 336 328 333 341 344
349 351 353 357 -0 3 8 12 14 8 357 358 7 8 6 9 11 9 7 -0 353 17 13 355 14 0 321 349 26 36 26 38 67 49 14 31 82 93 9 296 352 72 269 305 354 28 2 316 326 14 17 20 21 12 9 17 352 346 359 2 342 17 39 41 35 44 119 84 33 21 356 358 26 29 21 15 8 358 352 347 339 335 328 326 338 345 340
345 347 352 359 2 3 6 9 11 9 358 352 358 1 2 5 10 17 19 357 320 26 34 291 57 38 21 23 11 352 11 61 51 13 14 60 95 104 101 297 309 272 253 310 17 52 353 314 2 30 22 42 33 358 334 255 287 313 328 312 326 36 45 12 11 18 13 23 21 13 5 8 13 11 4 354 344 341 344 346 346 346 344 343 343 338 331
345 347 351 357 1 1 3 3 6 9 5 356 350 351 -0 8 13 21 24 11 358 57 0 328 16 16 9 14 338 326 8 71 53 16 20 25 69 111 108 334 301 336 39 10 2 8 332 328 338 41 180 58 19 337 276 277 309 353 344 326 356 44 38 12 35 39 4 354 13 23 19 339 333 346 346 337 339 352 354 349 347 350 352 349 345 341 338
346 347 347 352 358 359 357 353 352 354 354 350 341 330 341 6 13 19 27 27 23 20 275 291 305 322 337 340 328 332 21 81 94 78 45 346 330 9 132 231 238 201 117 84 12 326 304 289 258 191 134 31 12 343 316 324 353 26 348 346 33 73 74 69 98 141 241 306 354 34 54 274 293 324 328 328 354 6 357 353 352 348 352 358 353 345 341
344 345 342 346 352 353 348 343 339 336 343 346 339 322 314 30 15 8 13 20 9 345 290 285 306 292 256 296 317 335 359 5 58 94 83 342 334 332 292 262 231 172 128 118 129 259 264 260 232 137 153 161 133 348 328 345 32 14 341 22 66 87 101 117 138 176 238 323 350 12 10 305 301 320 326 343 11 13 1 358 354 351 2 4 350 334 336
342 344 340 339 345 345 341 337 328 324 342 349 340 319 297 118 10 357 2 13 7 356 347 292 314 292 227 237 301 329 345 1 25 50 53 358 312 297 298 305 290 120 98 99 185 217 264 289 343 108 180 157 116 109 305 331 62 0 355 31 60 62 70 104 123 119 32 9 3 6 350 320 318 340 352 -0 9 13 12 -0 358 6 3 348 331 332 354
340 342 336 334 338 339 337 334 326 325 346 356 352 340 116 142 333 345 356 4 -0 351 314 255 281 274 270 271 243 269 317 347 353 354 280 246 268 286 350 15 1 36 78 74 322 346 293 288 326 51 114 80 75 116 237 330 350 132 119 78 81 73 65 60 61 66 60 31 10 -0 342 336 356 5 356 356 8 19 24 5 357 1 352 341 349 11 13
336 337 333 330 332 334 333 330 324 320 335 349 348 323 219 277 313 332 347 353 345 329 244 279 287 251 266 255 214 207 247 331 305 281 204 209 260 342 46 26 299 336 88 107 127 300 246 236 292 332 130 122 108 116 196 284 260 155 132 100 69 70 73 56 44 60 60 33 19 11 350 353 9 -0 347 10 26 27 22 3 357 1 2 5 17 19 12
331 330 327 324 327 329 327 324 315 304 307 316 310 277 254 285 312 329 345 350 331 291 242 274 289 261 283 287 203 239 6 329 282 284 138 202 224 59 68 239 245 48 69 107 146 255 265 231 244 262 180 136 119 108 219 235 176 81 66 65 63 55 51 47 55 67 50 16 26 61 24 352 3 11 15 30 33 22 11 8 10 14 17 21 20 14 7
326 322 319 318 320 320 315 312 307 299 300 300 277 246 275 308 322 334 344 342 320 285 259 257 271 266 281 36 69 338 332 311 278 29 342 241 212 150 89 294 306 80 115 149 163 238 283 273 227 205 163 141 131 128 233 199 72 56 41 50 61 49 30 28 47 63 39 357 16 74 54 17 19 31 33 35 26 11 12 23 25 21 22 24 17 8 3
321 315 312 311 313 312 308 304 300 298 300 292 259 277 309 318 322 327 327 323 331 313 285 270 284 301 323 10 351 298 299 293 286 327 255 229 205 147 108 324 315 157 169 166 168 223 240 229 176 168 205 170 144 150 180 67 62 53 42 48 51 41 24 20 37 38 9 344 21 70 57 35 36 42 42 37 22 8 13 28 29 24 23 20 4 353 352
318 314 310 308 310 312 308 296 282 282 299 304 303 310 315 316 313 305 288 236 205 233 288 313 313 327 350 349 314 332 346 333 298 292 284 222 226 99 97 80 276 237 152 128 207 251 240 192 120 105 265 207 161 172 142 103 79 63 61 63 57 40 27 59 69 35 341 341 50 67 51 40 56 61 51 40 27 11 9 18 23 19 10 355 345 341 343
317 315 312 310 311 312 301 265 242 310 319 311 309 311 308 302 296 283 257 222 217 218 213 297 288 283 341 320 282 350 11 353 321 320 342 11 331 296 150 151 262 284 30 245 241 236 226 164 134 183 238 207 185 171 135 119 118 109 95 90 73 47 59 86 82 49 337 348 48 60 42 36 59 74 69 50 28 9 358 356 2 -0 343 328 327 333 337
329 325 317 310 305 284 231 253 342 345 334 322 319 319 302 275 255 245 216 188 201 205 193 222 249 230 217 291 268 180 72 342 337 337 350 35 330 300 0 112 188 134 52 276 263 248 89 176 182 210 227 189 164 156 137 127 130 127 126 137 127 67 60 95 94 74 2 16 47 47 38 46 57 82 100 100 42 342 326 323 327 323 310 304 309 325 339
349 341 325 307 279 319 322 326 333 336 333 323 308 307 270 189 174 244 219 171 170 199 193 207 230 217 191 234 268 89 90 55 333 314 307 349 25 302 9 9 8 101 52 287 300 40 28 265 227 233 234 176 153 159 149 126 121 126 138 139 123 87 63 87 91 90 130 130 127 149 170 122 75 78 108 140 199 253 285 301 303 299 299 304 308 326 350
360 348 331 327 349 331 322 319 317 317 316 296 224 204 209 203 215 239 218 182 197 212 182 186 217 217 127 125 207 313 13 107 226 284 310 315 207 138 44 342 334 84 316 276 250 115 161 256 279 276 248 172 156 165 142 114 115 125 123 118 114 103 93 99 107 123 128 128 142 166 157 119 94 70 44 326 245 229 251 278 285 285 293 300 308 6 17
353 344 328 318 317 313 311 311 306 291 273 250 230 214 258 262 252 252 261 256 245 225 156 153 204 227 90 119 185 245 268 250 213 161 308 290 289 84 62 302 329 26 267 260 248 118 180 259 277 254 198 149 150 154 123 104 107 111 107 110 109 97 81 108 159 152 141 138 155 162 139 120 118 116 0 298 269 245 247 264 273 279 285 287 299 65 32
326 309 295 299 304 303 301 300 285 246 221 0 343 277 239 242 250 262 248 224 214 202 105 123 142 127 119 146 209 180 166 191 167 67 331 276 258 118 189 244 339 324 255 261 288 281 226 256 265 239 188 154 152 147 123 111 113 112 117 124 120 106 85 73 141 149 158 167 166 150 138 137 148 155 214 276 277 274 263 253 260 281 294 289 117 82 43
329 305 288 291 295 286 265 245 212 187 153 44 58 260 268 253 237 242 245 223 163 131 160 172 143 105 91 63 356 47 96 116 106 86 253 256 249 152 222 229 199 242 253 275 299 260 246 255 245 218 188 166 158 148 130 125 134 159 165 145 135 131 130 134 151 158 150 139 130 128 133 158 177 186 232 259 273 294 306 286 289 332 353 36 103 97 66
337 317 278 264 261 250 253 265 142 127 145 189 193 221 253 247 227 222 228 235 62 149 169 161 143 126 109 89 275 0 59 58 59 51 277 260 263 260 230 219 218 233 251 283 274 246 247 256 232 183 167 170 178 166 146 139 150 182 181 148 139 139 140 149 184 186 151 135 142 160 171 201 216 228 251 260 265 331 9 17 18 9 12 33 69 89 81
329 307 251 237 275 291 298 307 308 207 199 213 212 209 230 252 266 251 209 200 202 7 63 85 81 78 81 123 153 185 69 79 93 121 240 253 287 288 246 237 252 260 246 263 267 256 263 279 268 153 159 181 191 172 159 162 174 184 170 146 144 150 151 158 194 208 175 162 174 187 202 233 241 241 248 254 242 100 34 17 13 14 23 35 41 49 66
301 278 305 305 296 295 230 266 279 265 216 226 233 227 233 252 277 300 189 177 97 46 35 42 48 37 6 357 67 157 142 133 155 226 210 191 244 248 221 233 282 285 245 252 255 241 250 263 245 164 166 187 189 177 186 201 195 177 154 144 156 169 164 165 192 217 192 169 176 193 209 229 246 248 236 218 168 116 97 50 24 19 33 46 40 29 38
287 284 308 299 283 254 223 231 247 264 280 283 281 280 275 269 288 26 70 105 87 67 48 41 51 52 19 331 334 247 201 158 193 265 335 129 252 251 226 222 245 240 237 254 255 251 254 254 213 170 172 187 194 201 215 213 183 151 135 135 160 177 170 169 189 211 192 175 190 212 216 223 243 251 225 174 145 123 110 93 53 22 29 54 52 34 32
311 320 301 290 283 258 248 284 310 298 289 291 296 304 313 323 339 4 45 89 96 89 77 61 50 27 328 339 320 254 252 212 191 212 193 199 249 260 266 244 237 232 221 229 241 252 251 218 182 176 184 194 199 213 227 213 170 154 156 168 181 181 172 173 191 206 194 186 202 223 224 224 244 258 234 174 151 136 115 107 101 57 38 54 62 48 37
293 289 261 265 292 284 283 309 313 297 289 300 315 320 336 353 348 346 17 80 92 89 91 95 91 71 303 300 289 259 243 205 195 212 194 180 199 228 244 239 243 251 242 233 242 255 241 194 177 179 188 192 198 213 231 225 175 154 163 195 206 188 178 178 188 202 205 203 213 228 232 233 247 256 234 179 149 132 122 131 145 125 92 68 72 69 54
266 252 232 237 267 285 294 297 292 290 301 319 321 326 358 20 359 343 355 45 78 76 73 83 98 107 151 289 286 268 243 219 223 239 228 211 202 214 229 232 231 230 234 244 256 260 184 168 179 195 197 192 195 204 212 208 184 171 185 221 240 221 196 185 183 190 204 213 221 233 240 242 252 259 236 174 148 142 151 165 166 149 138 120 95 88 75
244 241 237 233 242 265 288 288 279 286 298 302 299 308 338 356 297 299 21 61 79 83 85 124 155 137 168 213 231 250 258 216 209 239 241 234 217 218 233 239 230 218 231 255 275 283 224 185 189 198 200 195 192 196 197 193 186 185 198 213 220 227 225 202 185 184 196 208 218 233 242 242 252 263 244 171 157 165 170 167 169 171 155 135 115 109 104
232 245 262 248 241 256 272 271 269 274 280 282 285 296 311 303 270 256 93 94 115 148 180 187 162 156 188 217 228 249 275 239 230 242 243 235 224 226 236 245 241 232 237 253 270 284 281 240 194 185 186 181 174 175 207 219 216 232 243 232 214 208 218 216 193 184 188 197 210 230 242 242 249 263 248 183 170 185 182 168 167 173 161 146 139 143 138